This is the latest recevied weather packets stored in our database for station/object AA0PB. If no packets are shown the sender has not sent any weather packets the latest 10 day(s).
| Time | Temp. | Humidity | Pressure | Rain* | Wind** | Luminosity | Snow |
|---|---|---|---|---|---|---|---|
| 1778130199 | 12.78° C | 81% | 1022.1 hPa | 0 mm | - | 0 W/m² | - |
| 1778129896 | 12.78° C | 80% | 1022.2 hPa | 0 mm | - | 0 W/m² | - |
| 1778129592 | 12.78° C | 80% | 1022.2 hPa | 0 mm | - | 0 W/m² | - |
| 1778129290 | 13.33° C | 80% | 1022.1 hPa | 0 mm | - | 0 W/m² | - |
| 1778128986 | 13.33° C | 79% | 1022.1 hPa | 0 mm | - | 0 W/m² | - |
| 1778128682 | 13.33° C | 79% | 1022.1 hPa | 0 mm | - | 0 W/m² | - |
| 1778128379 | 13.33° C | 78% | 1021.8 hPa | 0 mm | - | 0 W/m² | - |
| 1778128075 | 13.89° C | 78% | 1022 hPa | 0 mm | - | 0 W/m² | - |
| 1778127770 | 13.89° C | 77% | 1021.9 hPa | 0 mm | - | 0 W/m² | - |
| 1778127468 | 13.89° C | 77% | 1021.9 hPa | 0 mm | - | 0 W/m² | - |
| 1778127164 | 13.89° C | 76% | 1021.9 hPa | 0 mm | - | 0 W/m² | - |
| 1778126862 | 13.89° C | 76% | 1021.9 hPa | 0 mm | - | 0 W/m² | - |
| 1778126557 | 14.44° C | 76% | 1022.1 hPa | 0 mm | - | 0 W/m² | - |
| 1778126254 | 14.44° C | 76% | 1021.7 hPa | 0 mm | - | 0 W/m² | - |
| 1778125949 | 14.44° C | 76% | 1021.8 hPa | 0 mm | - | 0 W/m² | - |
| 1778125647 | 14.44° C | 75% | 1021.6 hPa | 0 mm | - | 0 W/m² | - |
| 1778125344 | 14.44° C | 75% | 1021.8 hPa | 0 mm | - | 0 W/m² | - |
| 1778125042 | 14.44° C | 75% | 1021.5 hPa | 0 mm | - | 1 W/m² | - |
| 1778124739 | 15° C | 74% | 1021.7 hPa | 0 mm | - | 1 W/m² | - |
| 1778124437 | 15° C | 74% | 1021.5 hPa | 0 mm | - | 2 W/m² | - |
| 1778124132 | 15° C | 74% | 1021.3 hPa | 0 mm | - | 3 W/m² | - |
| 1778123829 | 15° C | 73% | 1021.4 hPa | 0 mm | - | 5 W/m² | - |
| 1778123526 | 15.56° C | 73% | 1021.3 hPa | 0 mm | - | 8 W/m² | - |
| 1778123223 | 15.56° C | 73% | 1021.3 hPa | 0 mm | - | 12 W/m² | - |
| 1778122920 | 15.56° C | 73% | 1021 hPa | 0 mm | - | 17 W/m² | - |
* Rain latest hour (hover to see other rain measurements)
** Current wind speed in m/s (hover to see current wind gust speed)